Weather History for Kansas City International, MO

Change the Weather History Date:

Saturday, March 3, 2012

  Actual Average Record
Temperature  
Mean Temperature 38 °F 39 °F  
Max Temperature 46 °F 50 °F 81 °F (1983)
Min Temperature 29 °F 29 °F -7 °F (2014)
Degree Days  
Heating Degree Days 27 26  
Month to date heating degree days 67 78  
Since 1 July heating degree days 3574 4123  
Cooling Degree Days 0 0  
Month to date cooling degree days 0 0  
Year to date cooling degree days 0 0  
Moisture  
Dew Point 18 °F    
Average Humidity 49    
Maximum Humidity 69    
Minimum Humidity 28    
Precipitation  
Precipitation 0.00 in 0.07 in 1.03 in (1952)
Month to date precipitation 0.14 0.19  
Year to date precipitation 3.33 2.72  
Snow  
Snow 0.00 in 0.10 in 6.20 in (1952)
Month to date snowfall 0.3 0.3  
Since 1 July snowfall 3.4 16.5  
Snow Depth 0.00 in    
Sea Level Pressure  
Sea Level Pressure 29.98 in    
Wind  
Wind Speed 11 mph (WNW)    
Max Wind Speed 23 mph    
Max Gust Speed 31 mph    
Visibility 10 miles    
Events      
T = Trace of Precipitation, MM = Missing Value Source: NWS Daily Summary

Daily Weather History Graph

Daily Weather History Graph

Search for Another Location

Airport:

Trip Planner

Search our weather history database for the weather conditions in past years. The results will help you decide how hot, cold, wet, or windy it might be!

Date:

Astronomy

Mar. 03, 2012 Rise Set
Actual Time 6:47 AM CST 6:14 PM CST
Civil Twilight 6:21 AM CST 6:40 PM CST
Nautical Twilight 5:50 AM CST 7:11 PM CST
Astronomical Twilight 5:19 AM CST 7:43 PM CST
Moon 1:26 PM CST (3/3) 3:24 AM CST (3/3)
Length of Visible Light 12h 19m
Length of Day
11h 26m
Waxing Gibbous, 75% of the Moon is Illuminated
Mar 3
Waxing Gibbous
Mar 8
Full
Mar 14
Last Quarter
Mar 22
New
Mar 30
First Quarter

Hourly Weather History & Observations

Time (CST) Temp. Windchill Dew Point Humidity Pressure Visibility Wind Dir Wind Speed Gust Speed Precip Events Conditions
12:53 AM 33.1 °F 26.1 °F 19.9 °F 59% 29.96 in 10.0 mi NW 8.1 mph - N/A   Clear
1:53 AM 32.0 °F 24.8 °F 21.0 °F 64% 29.96 in 10.0 mi WNW 8.1 mph - N/A   Clear
2:53 AM 30.9 °F 21.7 °F 21.0 °F 67% 29.95 in 10.0 mi West 11.5 mph - N/A   Clear
3:53 AM 30.9 °F 20.7 °F 21.0 °F 67% 29.95 in 10.0 mi WNW 13.8 mph - N/A   Clear
4:53 AM 30.0 °F 21.1 °F 19.9 °F 66% 29.96 in 10.0 mi West 10.4 mph - N/A   Clear
5:53 AM 30.0 °F 19.5 °F 19.9 °F 66% 29.97 in 10.0 mi WNW 13.8 mph 23.0 mph N/A   Clear
6:53 AM 28.9 °F 18.2 °F 19.0 °F 67% 29.99 in 10.0 mi WNW 13.8 mph 20.7 mph N/A   Clear
7:53 AM 30.9 °F 21.2 °F 19.9 °F 64% 30.01 in 10.0 mi WNW 12.7 mph 21.9 mph N/A   Clear
8:53 AM 33.1 °F 21.9 °F 19.9 °F 59% 30.03 in 10.0 mi WNW 18.4 mph 25.3 mph N/A   Clear
9:53 AM 35.1 °F 26.9 °F 18.0 °F 50% 30.04 in 10.0 mi WNW 11.5 mph 24.2 mph N/A   Partly Cloudy
10:53 AM 37.0 °F 28.9 °F 19.9 °F 50% 30.03 in 10.0 mi WNW 12.7 mph 21.9 mph N/A   Partly Cloudy
11:53 AM 39.9 °F 32.1 °F 19.9 °F 45% 30.02 in 10.0 mi WNW 13.8 mph 20.7 mph N/A   Partly Cloudy
12:53 PM 43.0 °F 36.0 °F 19.0 °F 38% 30.00 in 10.0 mi NW 13.8 mph 23.0 mph N/A   Scattered Clouds
1:53 PM 44.1 °F 36.8 °F 17.1 °F 34% 29.97 in 10.0 mi WNW 16.1 mph 25.3 mph N/A   Scattered Clouds
2:53 PM 46.0 °F 38.8 °F 15.1 °F 29% 29.97 in 10.0 mi NW 18.4 mph 27.6 mph N/A   Scattered Clouds
3:53 PM 45.0 °F 37.6 °F 15.1 °F 30% 29.97 in 10.0 mi WNW 17.3 mph 27.6 mph N/A   Mostly Cloudy
4:53 PM 42.1 °F 36.1 °F 15.1 °F 34% 29.98 in 10.0 mi WNW 10.4 mph 20.7 mph N/A   Mostly Cloudy
5:53 PM 42.1 °F 36.6 °F 15.1 °F 34% 29.98 in 10.0 mi NW 9.2 mph - N/A   Scattered Clouds
6:53 PM 37.9 °F 34.4 °F 16.0 °F 41% 29.98 in 10.0 mi WNW 4.6 mph - N/A   Partly Cloudy
7:53 PM 37.9 °F 34.4 °F 15.1 °F 39% 29.98 in 10.0 mi WSW 4.6 mph - N/A   Mostly Cloudy
8:53 PM 36.0 °F 31.1 °F 18.0 °F 48% 29.97 in 10.0 mi WSW 5.8 mph - N/A   Overcast
9:53 PM 36.0 °F 32.1 °F 16.0 °F 44% 29.96 in 10.0 mi West 4.6 mph - N/A   Scattered Clouds
10:53 PM 36.0 °F 32.1 °F 17.1 °F 46% 29.96 in 10.0 mi WSW 4.6 mph - N/A   Overcast
11:53 PM 36.0 °F 33.3 °F 18.0 °F 48% 29.95 in 10.0 mi West 3.5 mph - N/A   Overcast